Location: Unspecified
(0.0000°N, 0.0000°E)
Time: 05:28:05
(UTC+00:00)

BEESAT 3 - Visible Passes

Search period start: 26 October 2021 00:00
Search period end: 05 November 2021 00:00
Orbit: 481 x 510 km, 64.9° (Epoch: 24 October)

Date Brightness Start Highest point End Pass type
(mag) Time Alt. Az. Time Alt. Az. Time Alt. Az.
26 Oct ? 04:24:44 10° S 04:28:13 39° ESE 04:31:43 10° NE visible
27 Oct ? 04:02:42 10° S 04:06:03 32° ESE 04:09:24 10° NE visible
28 Oct ? 03:44:09 26° ESE 03:44:09 26° ESE 03:47:02 10° NE visible
